1514451600.88,46187,5.69,71374.3,-5.55,-6.39,-6.39,0,*59
1514451602.07,46188,5.69,71360.8,-5.55,-6.47,-6.47,0,*56
1514451603.27,46189,5.69,71354.3,-5.55,-6.59,-6.51,0,*5F
1514451604.47,46190,5.69,71358.5,-5.55,-6.51,-6.47,0,*58
1514451605.67,46191,5.69,71378.8,-5.51,-6.69,-6.55,0,*55
1514451606.91,46192,5.69,71372.8,-5.53,-6.63,-6.51,0,*5A
1514451608.17,46193,5.69,71368.0,-5.53,-6.73,-6.63,0,*5B
1514451609.39,46194,5.69,71376.8,-5.53,-6.73,-6.73,0,*5D
1514451610.62,46195,5.69,71372.8,-5.53,-6.51,-6.51,0,*5C
1514451611.82,46196,5.69,71376.3,-5.51,-6.43,-6.43,0,*5D
1514451613.04,46197,5.69,71376.0,-5.53,-6.39,-6.39,0,*5E
1514451614.24,46198,5.69,71374.5,-5.51,-6.43,-6.39,0,*5E
1514451615.43,46199,5.69,71368.5,-5.51,-6.69,-6.59,0,*51
1514451616.66,46200,5.69,71354.8,-5.53,-6.77,-6.77,0,*53
1514451617.86,46201,5.69,71356.3,-5.51,-6.73,-6.73,0,*50
1514451619.08,46202,5.69,71350.8,-5.53,-6.77,-6.73,0,*55
1514451620.31,46203,5.69,71344.5,-5.53,-6.77,-6.77,0,*50
1514451621.56,46204,5.69,71350.3,-5.53,-6.85,-6.63,0,*5F
1514451622.79,46205,5.69,71364.0,-5.53,-6.59,-6.59,0,*56
1514451624.06,46206,5.69,71362.3,-5.53,-6.63,-6.63,0,*55
1514451625.28,46207,5.69,71352.5,-5.51,-6.63,-6.55,0,*53
1514451626.51,46208,5.69,71348.8,-5.53,-6.59,-6.59,0,*5B
1514451627.73,46209,5.69,71354.8,-5.53,-6.39,-6.39,0,*5A
1514451628.93,46210,5.69,71374.3,-5.51,-6.43,-6.35,0,*51
1514451630.13,46211,5.69,71378.3,-5.51,-6.55,-6.47,0,*52
1514451631.36,46212,5.69,71370.0,-5.53,-6.59,-6.59,0,*50
1514451632.59,46213,5.69,71362.5,-5.53,-6.77,-6.73,0,*55
1514451633.78,46214,5.69,71356.3,-5.51,-6.73,-6.69,0,*5F
1514451635.02,46215,5.69,71350.3,-5.53,-6.63,-6.77,0,*52
1514451636.25,46216,5.69,71348.8,-5.53,-6.77,-6.73,0,*50
1514451637.48,46217,5.69,71360.8,-5.53,-6.51,-6.47,0,*52
1514451638.71,46218,5.69,71364.3,-5.53,-6.47,-6.51,0,*5D
1514451639.94,46219,5.69,71374.0,-5.53,-6.59,-6.51,0,*53
1514451641.13,46220,5.69,71358.8,-5.51,-6.69,-6.59,0,*50
1514451642.36,46221,5.69,71376.3,-5.53,-6.59,-6.51,0,*58
1514451643.56,46222,5.69,71360.3,-5.51,-6.47,-6.43,0,*55
1514451644.78,46223,5.69,71368.3,-5.53,-6.73,-6.69,0,*59
1514451645.98,46224,5.69,71348.8,-5.51,-6.47,-6.43,0,*53
1514451647.18,46225,5.69,71324.3,-5.51,-6.47,-6.43,0,*52
1514451648.41,46226,5.69,71324.0,-5.53,-6.51,-6.51,0,*57
1514451649.61,46227,5.69,71366.3,-5.51,-6.47,-6.43,0,*50
1514451650.8,46228,5.69,71352.3,-5.51,-6.69,-6.69,0,*5B
1514451652.02,46229,5.69,71340.3,-5.53,-6.73,-6.73,0,*58
1514451653.22,46230,5.69,71332.5,-5.51,-6.81,-6.69,0,*54
1514451654.41,46231,5.69,71338.0,-5.51,-6.69,-6.69,0,*53
1514451655.64,46232,5.69,71344.5,-5.53,-6.51,-6.51,0,*52
1514451656.84,46233,5.69,71350.8,-5.51,-6.55,-6.55,0,*51
1514451658.03,46234,5.69,71358.0,-5.51,-6.69,-6.69,0,*56
1514451659.3,46235,5.69,71358.0,-5.53,-6.63,-6.63,0,*55
1514451660.57,46236,5.69,71362.3,-5.53,-6.63,-6.63,0,*56
1514451661.77,46237,5.69,71370.5,-5.51,-6.47,-6.51,0,*52
1514451662.97,46238,5.69,71358.3,-5.51,-6.35,-6.35,0,*5A
1514451664.2,46239,5.69,71352.0,-5.53,-6.39,-6.35,0,*55
1514451665.42,46240,5.69,71354.0,-5.53,-6.47,-6.39,0,*5E
1514451666.62,46241,5.69,71362.0,-5.51,-6.47,-6.35,0,*51
1514451667.84,46242,5.69,71368.3,-5.53,-6.47,-6.39,0,*5C
1514451669.07,46243,5.69,71372.0,-5.49,-6.43,-6.43,0,*5F
1514451670.29,46244,5.69,71370.5,-5.49,-6.31,-6.35,0,*5C
1514451671.52,46245,5.69,71362.8,-5.49,-6.35,-6.31,0,*5D
1514451672.75,46246,5.69,71354.5,-5.49,-6.55,-6.55,0,*5A
1514451673.97,46247,5.69,71362.0,-5.49,-6.43,-6.35,0,*5A
1514451675.2,46248,5.69,71362.8,-5.49,-6.43,-6.35,0,*55
1514451676.42,46249,5.69,71358.8,-5.49,-6.55,-6.47,0,*56
1514451677.65,46250,5.69,71358.0,-5.45,-6.39,-6.31,0,*59
1514451678.88,46251,5.69,71342.3,-5.45,-6.31,-6.31,0,*50
1514451680.1,46252,5.69,71340.5,-5.49,-6.43,-6.43,0,*5F
1514451681.33,46253,5.69,71328.5,-5.49,-6.55,-6.47,0,*5D
1514451682.56,46254,5.69,71322.5,-5.45,-6.51,-6.39,0,*5B
1514451683.78,46255,5.69,71344.5,-5.49,-6.47,-6.35,0,*5D
1514451685.03,46256,5.69,71358.8,-5.45,-6.31,-6.27,0,*50
1514451686.3,46257,5.69,71364.3,-5.49,-6.27,-6.19,0,*57
1514451687.52,46258,5.69,71376.8,-5.45,-6.39,-6.39,0,*59
1514451688.74,46259,5.69,71366.5,-5.49,-6.47,-6.43,0,*50
1514451689.97,46260,5.69,71352.0,-5.45,-6.55,-6.43,0,*55
1514451691.2,46261,5.69,71366.5,-5.45,-6.55,-6.55,0,*53
1514451692.43,46262,5.69,71366.3,-5.49,-6.59,-6.47,0,*53
1514451693.65,46263,5.69,71366.3,-5.49,-6.55,-6.47,0,*5E
1514451694.88,46264,5.69,71380.0,-5.45,-6.55,-6.55,0,*56
1514451696.1,46265,5.69,71386.5,-5.45,-6.69,-6.55,0,*58
1514451697.35,46266,5.69,71378.5,-5.45,-6.63,-6.55,0,*51
1514451698.57,46267,5.69,71380.0,-5.45,-6.69,-6.73,0,*5E
1514451699.81,46268,5.69,71386.3,-5.45,-6.69,-6.63,0,*50
1514451701.05,46269,5.69,71384.0,-5.45,-6.51,-6.51,0,*5B
1514451702.29,46270,5.69,71386.0,-5.45,-6.63,-6.55,0,*56
1514451703.54,46271,5.69,71392.3,-5.45,-6.77,-6.63,0,*57
1514451704.82,46272,5.69,71400.8,-5.45,-6.63,-6.63,0,*51
1514451706.04,46273,5.69,71396.3,-5.45,-6.55,-6.55,0,*50
1514451707.27,46274,5.69,71382.3,-5.45,-6.43,-6.43,0,*57
1514451708.5,46275,5.69,71374.8,-5.45,-6.51,-6.51,0,*56
1514451709.77,46276,5.69,71388.8,-5.45,-6.63,-6.63,0,*55
1514451711.02,46277,5.69,71382.8,-5.45,-6.63,-6.51,0,*55
1514451712.24,46278,5.69,71374.8,-5.45,-6.39,-6.39,0,*5B
1514451713.48,46279,5.69,71382.5,-5.45,-6.51,-6.51,0,*5A
1514451714.69,46280,5.69,71388.0,-5.49,-6.69,-6.73,0,*5B
1514451715.94,46281,5.69,71380.3,-5.45,-6.55,-6.63,0,*58
1514451717.17,46282,5.69,71392.3,-5.45,-6.55,-6.51,0,*5A
1514451718.4,46283,5.69,71390.3,-5.45,-6.55,-6.51,0,*5B
1514451719.63,46284,5.69,71386.3,-5.45,-6.55,-6.55,0,*58
1514451720.85,46285,5.69,71388.5,-5.45,-6.77,-6.69,0,*56
1514451722.08,46286,5.69,71374.0,-5.45,-6.81,-6.69,0,*5C
1514451723.3,46287,5.69,71374.8,-5.45,-6.77,-6.69,0,*54
1514451724.53,46288,5.69,71374.3,-5.45,-6.77,-6.69,0,*5B
1514451725.75,46289,5.69,71376.8,-5.45,-6.69,-6.77,0,*5A
1514451726.97,46290,5.69,71380.5,-5.45,-6.69,-6.55,0,*52
1514451728.19,46291,5.69,71378.0,-5.45,-6.43,-6.39,0,*51
1514451729.42,46292,5.69,71380.0,-5.45,-6.51,-6.43,0,*5C
1514451730.66,46293,5.69,71376.0,-5.45,-6.51,-6.51,0,*5E
1514451731.88,46294,5.69,71364.3,-5.45,-6.55,-6.55,0,*59
1514451733.13,46295,5.69,71366.0,-5.45,-6.63,-6.55,0,*5D
1514451734.36,46296,5.69,71368.3,-5.45,-6.55,-6.55,0,*5B
1514451735.6,46297,5.69,71386.3,-5.45,-6.63,-6.55,0,*5F
1514451736.84,46298,5.69,71392.0,-5.45,-6.51,-6.51,0,*55
1514451738.05,46299,5.69,71398.0,-5.45,-6.69,-6.69,0,*54
1514451739.3,46300,5.69,71396.0,-5.45,-6.69,-6.63,0,*5F
1514451740.52,46301,5.69,71418.3,-5.45,-6.77,-6.69,0,*5B
1514451741.75,46302,5.69,71412.3,-5.45,-6.77,-6.69,0,*58
1514451742.98,46303,5.69,71424.3,-5.45,-6.77,-6.77,0,*56
1514451744.2,46304,5.69,71428.3,-5.45,-6.77,-6.77,0,*51
1514451745.43,46305,5.69,71420.5,-5.49,-6.81,-6.73,0,*51
1514451746.66,46306,5.69,71410.0,-5.45,-6.81,-6.77,0,*5A
1514451747.87,46307,5.69,71408.3,-5.45,-6.69,-6.69,0,*52
1514451749.1,46308,5.69,71412.5,-5.45,-6.55,-6.51,0,*59
1514451750.37,46309,5.69,71398.3,-5.45,-6.63,-6.63,0,*5C
1514451751.6,46310,5.69,71378.3,-5.45,-6.89,-6.89,0,*54
1514451752.83,46311,5.69,71368.0,-5.45,-6.89,-6.81,0,*5D
1514451754.1,46312,5.69,71368.5,-5.45,-7.01,-7.01,0,*56
1514451755.37,46313,5.69,71326.3,-5.45,-7.05,-7.05,0,*57
1514451756.6,46314,5.69,71318.3,-5.49,-7.11,-7.11,0,*5C
1514451757.85,46315,5.69,71330.0,-5.45,-7.01,-6.89,0,*50
1514451759.12,46316,5.69,71348.3,-5.45,-7.01,-6.93,0,*58
1514451760.39,46317,5.69,71354.3,-5.49,-7.05,-7.05,0,*5F
1514451761.61,46318,5.69,71356.5,-5.45,-6.77,-6.69,0,*53
1514451762.83,46319,5.69,71360.5,-5.49,-6.73,-6.69,0,*5A
1514451764.06,46320,5.69,71354.5,-5.49,-6.81,-6.59,0,*5E
1514451765.28,46321,5.69,71356.8,-5.45,-6.77,-6.77,0,*56
1514451766.51,46322,5.69,71384.0,-5.45,-6.81,-6.77,0,*5C
1514451767.74,46323,5.69,71406.3,-5.45,-6.89,-6.89,0,*54
1514451768.96,46324,5.69,71414.8,-5.49,-6.85,-6.85,0,*5F
1514451770.18,46325,5.69,71422.3,-5.49,-6.85,-6.85,0,*5E
1514451771.4,46326,5.69,71382.5,-5.49,-6.81,-6.85,0,*59
1514451772.63,46327,5.69,71378.3,-5.45,-6.89,-6.89,0,*50
1514451773.86,46328,5.69,71378.3,-5.49,-6.81,-6.81,0,*53
1514451775.07,46329,5.69,71390.3,-5.49,-6.73,-6.69,0,*59
1514451776.27,46330,5.69,71396.0,-5.51,-6.69,-6.59,0,*50
1514451777.5,46331,5.69,71390.8,-5.49,-6.59,-6.59,0,*5B
1514451778.73,46332,5.69,71384.8,-5.45,-6.81,-6.81,0,*54
1514451779.95,46333,5.69,71386.0,-5.45,-6.89,-6.89,0,*55
1514451781.18,46334,5.69,71388.8,-5.45,-6.77,-6.69,0,*5D
1514451782.4,46335,5.69,71394.3,-5.49,-6.69,-6.59,0,*5C
1514451783.64,46336,5.69,71384.5,-5.45,-6.69,-6.63,0,*5A
1514451784.88,46337,5.69,71378.0,-5.49,-6.81,-6.81,0,*5D
1514451786.1,46338,5.69,71372.5,-5.45,-6.77,-6.69,0,*51
1514451787.32,46339,5.69,71370.3,-5.49,-6.73,-6.69,0,*58
1514451788.57,46340,5.69,71374.8,-5.49,-6.93,-6.81,0,*5E
1514451789.84,46341,5.69,71370.3,-5.49,-7.05,-6.93,0,*52
1514451791.11,46342,5.69,71352.0,-5.49,-7.05,-6.97,0,*55
1514451792.33,46343,5.69,71362.0,-5.49,-6.85,-6.85,0,*5E
1514451793.56,46344,5.69,71370.5,-5.49,-6.81,-6.85,0,*5D
1514451794.78,46345,5.69,71388.5,-5.49,-6.85,-6.73,0,*51
1514451796.0,46346,5.69,71398.3,-5.49,-6.73,-6.73,0,*5B
1514451797.22,46347,5.69,71404.5,-5.49,-6.59,-6.59,0,*5A
1514451798.45,46348,5.69,71420.5,-5.49,-6.59,-6.47,0,*5A
1514451799.67,46349,5.69,71416.0,-5.49,-6.69,-6.59,0,*57
1514451800.9,46350,5.69,71420.3,-5.45,-6.43,-6.31,0,*55
1514451802.12,46351,5.69,71402.3,-5.49,-6.47,-6.43,0,*59
1514451803.36,46352,5.69,71392.0,-5.45,-6.81,-6.81,0,*52
1514451804.58,46353,5.69,71394.8,-5.49,-6.85,-6.81,0,*5B
1514451805.81,46354,5.69,71412.5,-5.45,-6.89,-6.89,0,*54
1514451807.04,46355,5.69,71410.8,-5.49,-6.85,-6.81,0,*5D
1514451808.27,46356,5.69,71406.8,-5.45,-6.51,-6.43,0,*55
1514451809.49,46357,5.69,71376.8,-5.49,-6.73,-6.73,0,*5B
1514451810.76,46358,5.69,71386.0,-5.49,-6.93,-6.93,0,*54
1514451811.98,46359,5.69,71346.0,-5.45,-6.69,-6.69,0,*59
1514451813.23,46360,5.69,71290.8,-5.49,-6.93,-6.81,0,*5C
1514451814.48,46361,5.69,71240.3,-5.49,-6.93,-6.85,0,*59
1514451815.71,46362,5.69,71272.5,-5.49,-6.81,-6.73,0,*50
1514451816.92,46363,5.69,71292.5,-5.49,-6.73,-6.69,0,*57
1514451818.15,46364,5.69,71326.0,-5.45,-6.81,-6.77,0,*5E
1514451819.38,46365,5.69,71342.0,-5.49,-6.81,-6.81,0,*5A
1514451820.6,46366,5.69,71354.8,-5.49,-6.73,-6.73,0,*59
1514451821.83,46367,5.69,71372.8,-5.49,-6.59,-6.59,0,*58
1514451823.04,46368,5.69,71380.3,-5.49,-6.69,-6.69,0,*57
1514451824.26,46369,5.69,71378.3,-5.49,-6.81,-6.69,0,*50
1514451825.48,46370,5.69,71374.3,-5.49,-6.73,-6.73,0,*5E
1514451826.68,46371,5.69,71368.5,-5.51,-6.73,-6.69,0,*5D
1514451827.87,46372,5.69,71372.8,-5.51,-6.69,-6.59,0,*56
1514451829.06,46373,5.69,71378.3,-5.51,-6.69,-6.73,0,*5F
1514451830.28,46374,5.69,71382.8,-5.49,-6.73,-6.69,0,*51
1514451831.48,46375,5.69,71372.5,-5.51,-6.81,-6.73,0,*5F
1514451832.68,46376,5.69,71366.5,-5.51,-6.69,-6.59,0,*52
1514451833.88,46377,5.69,71374.0,-5.51,-6.59,-6.55,0,*5C
1514451835.1,46378,5.69,71380.5,-5.49,-6.85,-6.81,0,*52
1514451836.33,46379,5.69,71378.5,-5.49,-6.69,-6.59,0,*54
1514451837.55,46380,5.69,71370.8,-5.49,-6.55,-6.55,0,*51
1514451838.77,46381,5.69,71352.8,-5.49,-6.85,-6.85,0,*50
1514451840.0,46382,5.69,71356.5,-5.49,-6.81,-6.59,0,*56
1514451841.22,46383,5.69,71360.5,-5.49,-6.59,-6.59,0,*52
1514451842.45,46384,5.69,71362.0,-5.49,-6.59,-6.59,0,*55
1514451843.67,46385,5.69,71368.0,-5.49,-6.59,-6.55,0,*58
1514451844.9,46386,5.69,71376.8,-5.45,-6.55,-6.51,0,*5F
1514451846.13,46387,5.69,71374.8,-5.49,-6.59,-6.55,0,*5A
1514451847.35,46388,5.69,71374.3,-5.45,-6.55,-6.55,0,*55
1514451848.59,46389,5.69,71374.0,-5.45,-6.51,-6.51,0,*54
1514451849.86,46390,5.69,71370.5,-5.45,-6.63,-6.63,0,*5C
1514451851.09,46391,5.69,71368.5,-5.49,-6.81,-6.81,0,*51
1514451852.31,46392,5.69,71366.8,-5.49,-6.85,-6.81,0,*56
1514451853.54,46393,5.69,71360.0,-5.45,-6.81,-6.77,0,*56
1514451854.79,46394,5.69,71364.3,-5.45,-6.69,-6.63,0,*52
1514451856.01,46395,5.69,71362.5,-5.49,-6.73,-6.59,0,*5D
1514451857.24,46396,5.69,71368.0,-5.49,-6.81,-6.81,0,*56
1514451858.52,46397,5.69,71358.0,-5.49,-6.93,-6.93,0,*57
1514451859.75,46398,5.69,71358.8,-5.45,-6.81,-6.81,0,*54
1514451860.97,46399,5.69,71370.0,-5.49,-6.69,-6.69,0,*59
1514451862.19,46400,5.69,71356.3,-5.49,-6.81,-6.73,0,*53
1514451863.44,46401,5.69,71358.8,-5.45,-6.69,-6.63,0,*59
1514451864.64,46402,5.69,71374.0,-5.51,-6.85,-6.81,0,*51
1514451865.86,46403,5.69,71376.0,-5.45,-6.77,-6.69,0,*5E
1514451867.07,46404,5.69,71384.0,-5.51,-6.85,-6.81,0,*57
1514451868.29,46405,5.69,71380.5,-5.49,-6.85,-6.85,0,*5B
1514451869.51,46406,5.69,71394.3,-5.49,-6.73,-6.81,0,*55
1514451870.76,46407,5.69,71364.8,-5.49,-6.81,-6.93,0,*5A
1514451871.98,46408,5.69,71358.0,-5.49,-6.85,-6.85,0,*56
1514451873.21,46409,5.69,71380.0,-5.49,-6.59,-6.47,0,*58
1514451874.43,46410,5.69,71384.0,-5.49,-6.69,-6.59,0,*5C
1514451875.65,46411,5.69,71382.5,-5.49,-6.55,-6.47,0,*5D
1514451876.88,46412,5.69,71360.8,-5.49,-6.55,-6.47,0,*5E
1514451878.11,46413,5.69,71372.8,-5.45,-6.43,-6.43,0,*50
1514451879.33,46414,5.69,71372.0,-5.49,-6.55,-6.47,0,*58
1514451880.56,46415,5.69,71370.3,-5.45,-6.69,-6.55,0,*59
1514451881.78,46416,5.69,71376.3,-5.45,-6.55,-6.55,0,*55
1514451883.01,46417,5.69,71374.8,-5.45,-6.55,-6.55,0,*54
1514451884.23,46418,5.69,71368.0,-5.45,-6.69,-6.77,0,*54
1514451885.51,46419,5.69,71356.8,-5.49,-6.93,-6.93,0,*56
1514451886.78,46420,5.69,71352.5,-5.49,-6.97,-6.97,0,*5C
1514451888.03,46421,5.69,71354.8,-5.49,-6.85,-6.93,0,*5A
1514451889.26,46422,5.69,71354.5,-5.49,-6.81,-6.81,0,*5E
1514451890.53,46423,5.69,71348.3,-5.49,-6.93,-6.97,0,*5B
1514451891.78,46424,5.69,71338.5,-5.49,-7.05,-7.11,0,*5D
1514451893.06,46425,5.69,71352.0,-5.45,-7.01,-7.01,0,*55
1514451894.33,46426,5.69,71364.8,-5.45,-6.93,-6.93,0,*56
1514451895.56,46427,5.69,71372.5,-5.49,-6.85,-6.81,0,*5F
1514451896.78,46428,5.69,71364.0,-5.49,-6.85,-6.73,0,*5D
1514451898.01,46429,5.69,71342.3,-5.49,-6.81,-6.81,0,*55
1514451899.23,46430,5.69,71366.8,-5.49,-6.85,-6.85,0,*5D
1514451900.45,46431,5.69,71366.8,-5.49,-6.69,-6.59,0,*5F
1514451901.67,46432,5.69,71368.5,-5.49,-6.85,-6.85,0,*5F
1514451902.9,46433,5.69,71370.8,-5.49,-6.81,-6.81,0,*5E
1514451904.12,46434,5.69,71376.8,-5.49,-6.73,-6.73,0,*59
1514451905.36,46435,5.69,71394.3,-5.45,-6.51,-6.51,0,*54
1514451906.58,46436,5.69,71388.3,-5.45,-6.55,-6.39,0,*5D
1514451907.85,46437,5.69,71386.3,-5.45,-6.63,-6.63,0,*56
1514451909.08,46438,5.69,71390.8,-5.45,-6.77,-6.69,0,*56
1514451910.31,46439,5.69,71366.5,-5.49,-6.81,-6.81,0,*54
1514451911.53,46440,5.69,71370.5,-5.49,-6.59,-6.73,0,*52
1514451912.74,46441,5.69,71380.8,-5.49,-6.69,-6.69,0,*5B
1514451913.97,46442,5.69,71386.3,-5.49,-6.81,-6.73,0,*55
1514451915.19,46443,5.69,71392.3,-5.49,-6.73,-6.73,0,*59
1514451916.41,46444,5.69,71406.8,-5.45,-6.77,-6.69,0,*5D
1514451917.64,46445,5.69,71410.3,-5.49,-6.81,-6.81,0,*5F
1514451918.92,46446,5.69,71408.5,-5.49,-6.93,-6.93,0,*5C
1514451920.14,46447,5.69,71396.5,-5.49,-6.73,-6.73,0,*5D
1514451921.36,46448,5.69,71390.5,-5.49,-6.59,-6.59,0,*52
1514451922.59,46449,5.69,71388.8,-5.49,-6.55,-6.47,0,*50
1514451923.82,46450,5.69,71382.5,-5.49,-6.81,-6.81,0,*5B
1514451925.04,46451,5.69,71404.3,-5.45,-6.69,-6.77,0,*59
1514451926.26,46452,5.69,71406.0,-5.45,-6.77,-6.69,0,*5A
1514451927.49,46453,5.69,71406.8,-5.45,-6.77,-6.77,0,*54
1514451928.71,46454,5.69,71418.5,-5.49,-6.73,-6.73,0,*5F
1514451929.93,46455,5.69,71406.8,-5.49,-6.69,-6.59,0,*5D
1514451931.15,46456,5.69,71408.0,-5.49,-6.59,-6.69,0,*5E
1514451932.37,46457,5.69,71418.3,-5.49,-6.69,-6.73,0,*57
1514451933.59,46458,5.69,71420.8,-5.49,-6.81,-6.73,0,*5E
1514451934.81,46459,5.69,71420.0,-5.49,-6.59,-6.69,0,*51
1514451936.05,46460,5.69,71410.0,-5.45,-6.63,-6.69,0,*5E
1514451937.28,46461,5.69,71396.0,-5.49,-6.85,-6.81,0,*5D
1514451938.5,46462,5.69,71386.5,-5.49,-6.59,-6.69,0,*59
1514451939.72,46463,5.69,71390.8,-5.45,-6.43,-6.43,0,*57
1514451940.95,46464,5.69,71396.5,-5.49,-6.55,-6.55,0,*5C
1514451942.16,46465,5.69,71396.0,-5.49,-6.69,-6.69,0,*5D
1514451943.43,46466,5.69,71384.5,-5.45,-6.63,-6.63,0,*52
1514451944.66,46467,5.69,71380.5,-5.45,-6.43,-6.43,0,*53
1514451945.88,46468,5.69,71374.0,-5.45,-6.39,-6.39,0,*5C
1514451947.11,46469,5.69,71376.3,-5.45,-6.51,-6.51,0,*5D
1514451948.35,46470,5.69,71376.3,-5.45,-6.63,-6.69,0,*5F
1514451949.58,46471,5.69,71398.0,-5.45,-6.77,-6.69,0,*5B
1514451950.81,46472,5.69,71372.8,-5.45,-6.77,-6.77,0,*57
1514451952.03,46473,5.69,71332.3,-5.45,-6.81,-6.89,0,*5E
1514451953.3,46474,5.69,71356.8,-5.45,-6.63,-6.63,0,*51
1514451954.55,46475,5.69,71368.8,-5.45,-6.69,-6.63,0,*5A
1514451955.8,46476,5.69,71374.0,-5.45,-6.63,-6.55,0,*56
1514451957.07,46477,5.69,71372.3,-5.45,-6.63,-6.63,0,*52
1514451958.3,46478,5.69,71368.0,-5.45,-6.43,-6.43,0,*5D
1514451959.52,46479,5.69,71366.0,-5.45,-6.31,-6.43,0,*59
1514451960.76,46480,5.69,71364.5,-5.45,-6.51,-6.43,0,*59
1514451961.99,46481,5.69,71370.3,-5.45,-6.51,-6.43,0,*58
1514451963.21,46482,5.69,71378.8,-5.45,-6.39,-6.39,0,*58
1514451964.44,46483,5.69,71388.3,-5.45,-6.31,-6.31,0,*59
1514451965.69,46484,5.69,71388.0,-5.45,-6.69,-6.63,0,*54
1514451966.89,46485,5.69,71380.5,-5.43,-6.77,-6.77,0,*59
1514451968.16,46486,5.69,71382.0,-5.45,-6.63,-6.63,0,*5C
1514451969.38,46487,5.69,71380.0,-5.45,-6.55,-6.55,0,*5D
1514451970.61,46488,5.69,71376.5,-5.45,-6.39,-6.43,0,*5F
1514451971.83,46489,5.69,71388.3,-5.45,-6.69,-6.69,0,*53
1514451973.04,46490,5.69,71382.5,-5.45,-6.69,-6.69,0,*5B
1514451974.27,46491,5.69,71360.3,-5.45,-6.77,-6.69,0,*55
1514451975.48,46492,5.69,71366.8,-5.45,-6.69,-6.69,0,*59
1514451976.73,46493,5.69,71378.0,-5.45,-6.63,-6.55,0,*5D
1514451977.95,46494,5.69,71378.0,-5.45,-6.69,-6.69,0,*5F
1514451979.16,46495,5.69,71382.8,-5.45,-6.69,-6.69,0,*5E
1514451980.37,46496,5.69,71376.8,-5.43,-6.51,-6.47,0,*5C
1514451981.61,46497,5.69,71372.8,-5.45,-6.69,-6.63,0,*56
1514451982.84,46498,5.69,71368.5,-5.45,-6.51,-6.43,0,*50
1514451984.04,46499,5.69,71370.5,-5.43,-6.35,-6.39,0,*58
1514451985.27,46500,5.69,71364.8,-5.45,-6.43,-6.43,0,*53
1514451986.52,46501,5.69,71368.3,-5.45,-6.63,-6.55,0,*57
1514451987.75,46502,5.69,71372.3,-5.45,-6.77,-6.81,0,*58
1514451988.98,46503,5.69,71372.5,-5.45,-6.77,-6.77,0,*50
1514451990.18,46504,5.69,71370.5,-5.43,-6.73,-6.77,0,*55
1514451991.41,46505,5.69,71366.0,-5.45,-6.81,-6.81,0,*56
1514451992.66,46506,5.69,71370.5,-5.45,-6.63,-6.55,0,*50
1514451993.88,46507,5.69,71366.3,-5.45,-6.77,-6.69,0,*5B
1514451995.08,46508,5.69,71368.8,-5.43,-6.89,-6.85,0,*51
1514451996.35,46509,5.69,71380.3,-5.45,-7.01,-6.93,0,*50
1514451997.55,46510,5.69,71390.5,-5.43,-6.89,-6.89,0,*54
1514451998.83,46511,5.69,71380.8,-5.45,-6.93,-6.93,0,*53
1514452000.1,46512,5.69,71378.8,-5.45,-7.01,-7.01,0,*50
1514452001.37,46513,5.69,71366.0,-5.45,-7.01,-7.01,0,*51
1514452002.6,46514,5.69,71376.8,-5.45,-6.89,-6.89,0,*56
1514452003.83,46515,5.69,71374.5,-5.45,-6.81,-6.81,0,*57
1514452005.05,46516,5.69,71368.3,-5.43,-6.63,-6.69,0,*58
1514452006.28,46517,5.69,71364.8,-5.45,-6.43,-6.51,0,*56
1514452007.55,46518,5.69,71366.3,-5.45,-6.63,-6.63,0,*5A
1514452008.79,46519,5.69,71376.5,-5.45,-6.89,-6.93,0,*50
1514452010.02,46520,5.69,71374.3,-5.45,-6.77,-6.77,0,*51
1514452011.3,46521,5.69,71370.8,-5.45,-7.01,-7.01,0,*50
1514452012.57,46522,5.69,71366.3,-5.45,-7.01,-7.01,0,*53
1514452013.82,46523,5.69,71382.5,-5.49,-7.11,-7.05,0,*5B
1514452015.05,46524,5.75,71382.8,-5.45,-6.89,-6.81,0,*5D
1514452016.28,46525,5.69,71368.0,-5.49,-6.81,-6.81,0,*58
1514452017.5,46526,5.69,71370.8,-5.49,-6.69,-6.59,0,*58
1514452018.73,46527,5.69,71378.0,-5.45,-6.81,-6.77,0,*5F
1514452020.0,46528,5.69,71388.5,-5.45,-6.63,-6.63,0,*59
1514452021.24,46529,5.69,71394.3,-5.45,-6.63,-6.55,0,*5D
1514452022.47,46530,5.69,71394.3,-5.45,-6.55,-6.55,0,*50
1514452023.7,46531,5.69,71376.0,-5.45,-6.81,-6.81,0,*51
1514452024.98,46532,5.69,71372.3,-5.45,-6.93,-6.93,0,*52
1514452026.25,46533,5.69,71362.0,-5.45,-7.01,-7.01,0,*53
1514452027.53,46534,5.69,71356.5,-5.49,-7.05,-6.97,0,*52
1514452028.8,46535,5.75,71360.8,-5.49,-6.97,-6.93,0,*5D
1514452030.07,46536,5.69,71356.0,-5.45,-7.01,-7.01,0,*56
1514452031.3,46537,5.69,71350.8,-5.45,-6.89,-6.89,0,*57
1514452032.52,46538,5.69,71356.0,-5.49,-6.81,-6.73,0,*59
1514452033.75,46539,5.69,71362.5,-5.45,-6.81,-6.89,0,*51
1514452034.97,46540,5.69,71358.3,-5.49,-6.85,-6.85,0,*5B
1514452036.19,46541,5.69,71354.3,-5.45,-6.77,-6.69,0,*59
1514452037.41,46542,5.69,71344.0,-5.49,-6.73,-6.73,0,*59
1514452038.64,46543,5.69,71348.8,-5.49,-6.73,-6.59,0,*50
1514452039.88,46544,5.69,71336.3,-5.45,-6.69,-6.63,0,*59
1514452041.14,46545,5.69,71344.5,-5.45,-6.93,-6.89,0,*59
1514452042.36,46546,5.69,71350.5,-5.45,-6.89,-6.89,0,*51
1514452043.59,46547,5.69,71364.8,-5.45,-6.51,-6.51,0,*50
1514452044.83,46548,5.69,71360.3,-5.45,-6.51,-6.55,0,*5B
1514452046.06,46549,5.69,71376.5,-5.45,-6.51,-6.43,0,*5D
1514452047.28,46550,5.69,71394.3,-5.49,-6.47,-6.43,0,*5E
1514452048.53,46551,5.69,71400.0,-5.45,-6.63,-6.55,0,*52
1514452049.75,46552,5.69,71388.5,-5.45,-6.77,-6.69,0,*5B
1514452050.98,46553,5.69,71366.0,-5.45,-6.77,-6.77,0,*55
1514452052.25,46554,5.69,71376.5,-5.45,-6.63,-6.63,0,*52
1514452053.52,46555,5.69,71386.8,-5.45,-6.63,-6.63,0,*53
1514452054.74,46556,5.69,71390.0,-5.45,-6.69,-6.69,0,*50
1514452055.96,46557,5.69,71384.8,-5.45,-6.77,-6.69,0,*5E
1514452057.19,46558,5.75,71376.3,-5.45,-6.77,-6.77,0,*5E
1514452058.42,46559,5.69,71372.0,-5.49,-6.81,-6.81,0,*53
1514452059.65,46560,5.69,71366.5,-5.45,-6.89,-6.81,0,*5D
1514452060.87,46561,5.69,71376.3,-5.45,-6.89,-6.89,0,*54
1514452062.09,46562,5.69,71386.8,-5.49,-6.73,-6.69,0,*50
1514452063.32,46563,5.69,71378.8,-5.45,-6.43,-6.43,0,*56
1514452064.55,46564,5.69,71354.0,-5.45,-6.77,-6.77,0,*51
1514452065.78,46565,5.69,71348.0,-5.45,-6.81,-6.81,0,*50
1514452067.03,46566,5.69,71346.8,-5.45,-6.63,-6.55,0,*56
1514452068.27,46567,5.75,71344.0,-5.45,-6.63,-6.69,0,*58
1514452069.5,46568,5.75,71350.5,-5.45,-6.51,-6.51,0,*5D
1514452070.77,46569,5.75,71356.5,-5.45,-6.63,-6.63,0,*5C
1514452072.02,46570,5.69,71360.3,-5.45,-6.69,-6.63,0,*5E
1514452073.25,46571,5.69,71370.8,-5.45,-6.55,-6.51,0,*51
1514452074.49,46572,5.69,71370.8,-5.45,-6.63,-6.55,0,*53
1514452075.76,46573,5.69,71354.5,-5.45,-6.63,-6.63,0,*57
1514452077.03,46574,5.69,71360.8,-5.45,-6.63,-6.63,0,*50
1514452078.26,46575,5.69,71366.5,-5.45,-6.51,-6.51,0,*51
1514452079.51,46576,5.69,71366.5,-5.45,-6.63,-6.51,0,*53
1514452080.76,46577,5.69,71364.5,-5.45,-6.63,-6.55,0,*56
1514452081.99,46578,5.69,71350.0,-5.45,-6.55,-6.51,0,*58
1514452083.21,46579,5.69,71346.0,-5.45,-6.69,-6.81,0,*5B
1514452084.49,46580,5.69,71352.3,-5.45,-7.01,-7.01,0,*5B
1514452085.74,46581,5.69,71358.5,-5.45,-6.93,-6.89,0,*51
1514452086.98,46582,5.69,71352.0,-5.45,-6.81,-6.81,0,*59
1514452088.2,46583,5.75,71350.0,-5.45,-6.69,-6.77,0,*57
1514452089.47,46584,5.69,71352.8,-5.45,-6.63,-6.63,0,*5F
1514452090.67,46585,5.69,71358.0,-5.43,-6.59,-6.51,0,*50
1514452091.92,46586,5.69,71352.8,-5.45,-6.51,-6.63,0,*5C
1514452093.13,46587,5.69,71358.5,-5.43,-6.59,-6.59,0,*5A
1514452094.32,46588,5.69,71350.8,-5.43,-6.73,-6.77,0,*51
1514452095.54,46589,5.69,71352.5,-5.45,-6.69,-6.77,0,*5D
1514452096.76,46590,5.69,71350.5,-5.45,-6.69,-6.69,0,*5A
1514452097.99,46591,5.69,71344.0,-5.45,-6.81,-6.81,0,*5B
1514452099.27,46592,5.75,71354.3,-5.45,-6.63,-6.63,0,*58
1514452100.49,46593,5.69,71344.5,-5.43,-6.63,-6.43,0,*5D
1514452101.71,46594,5.69,71344.8,-5.45,-6.55,-6.55,0,*5E
1514452102.96,46595,5.69,71340.3,-5.45,-6.55,-6.63,0,*5A
1514452104.17,46596,5.69,71340.0,-5.43,-6.51,-6.51,0,*5A
1514452105.37,46597,5.69,71338.8,-5.43,-6.47,-6.47,0,*5B
1514452106.57,46598,5.69,71342.0,-5.43,-6.51,-6.43,0,*57
1514452107.8,46599,5.69,71346.5,-5.45,-6.51,-6.51,0,*53
1514452109.04,46600,5.69,71352.0,-5.45,-6.51,-6.51,0,*50
1514452110.24,46601,5.69,71360.3,-5.43,-6.39,-6.35,0,*5B
1514452111.43,46602,5.69,71368.5,-5.43,-6.47,-6.39,0,*5D
1514452112.63,46603,5.69,71368.5,-5.43,-6.47,-6.47,0,*55
1514452113.83,46604,5.69,71370.8,-5.43,-6.39,-6.47,0,*5B
1514452115.03,46605,5.75,71368.5,-5.43,-6.59,-6.51,0,*5B
1514452116.25,46606,5.69,71376.8,-5.43,-6.63,-6.59,0,*59
1514452117.45,46607,5.69,71384.8,-5.43,-6.77,-6.85,0,*5C